FW4340 Weather Reports


time (UTC)temp
F
wind
direction
speed
knots
gust
knots
rain 1hr
in
rain 24hr
in
rain mn
in
humidity
%
barometer
mb
20260507023008 48 185 7.0 12.2 0.00 0.00 0.00 76 1011.5
20260507021503 48 187 7.8 13.0 0.00 0.00 0.00 76 1011.5
20260507020004 47 187 9.6 14.8 0.00 0.00 0.00 76 1011.5
20260507014502 47 194 9.6 15.6 0.00 0.00 0.00 76 1011.6
20260507013001 47 166 9.6 13.0 0.00 0.00 0.00 76 1011.5
20260507011601 48 187 9.6 13.9 0.00 0.00 0.00 75 1011.6
20260507010057 48 190 8.7 12.2 0.00 0.00 0.00 75 1011.6
20260507004554 48 187 7.8 12.2 0.00 0.00 0.00 74 1011.7
20260507003106 48 193 8.7 13.0 0.00 0.00 0.00 75 1011.8
20260507001611 48 191 7.0 10.4 0.00 0.00 0.00 75 1011.9
20260507000050 48 184 7.8 10.4 0.00 0.00 0.00 75 1012.0
20260506234553 48 212 6.1 8.7 0.00 0.00 0.00 76 1012.1
20260506233045 47 220 6.1 10.4 0.00 0.00 0.00 76 1011.9
20260506231544 48 226 2.6 6.1 0.00 0.00 0.00 76 1011.8
20260506230052 48 205 2.6 3.5 0.00 0.00 0.00 75 1011.8
20260506224537 49 224 3.5 6.1 0.00 0.00 0.00 74 1011.8
20260506223037 49 194 7.0 9.6 0.00 0.00 0.00 72 1011.7
20260506221536 49 186 7.0 9.6 0.00 0.00 0.00 71 1011.5
20260506220037 50 197 5.2 10.4 0.00 0.00 0.00 72 1011.5
20260506214535 50 195 4.3 6.1 0.00 0.00 0.00 74 1011.6
20260506213035 50 181 4.3 5.2 0.00 0.00 0.00 75 1011.5
20260506211533 51 174 4.3 7.0 0.00 0.00 0.00 74 1011.7
20260506210048 51 126 5.2 7.0 0.00 0.00 0.00 74 1011.7
20260506204532 52 134 3.5 6.1 0.00 0.00 0.00 75 1011.7
20260506203030 52 90 2.6 7.0 0.00 0.00 0.00 76 1011.7
20260506201527 52 89 4.3 7.8 0.00 0.00 0.00 76 1011.7
20260506200026 52 101 6.1 9.6 0.00 0.00 0.00 75 1011.5
20260506194528 52 88 5.2 9.6 0.00 0.00 0.00 75 1011.4
20260506193034 52 91 7.0 8.7 0.00 0.00 0.00 75 1011.4
20260506191527 52 95 7.0 11.3 0.00 0.00 0.00 75 1011.3
20260506190029 52 89 8.7 10.4 0.00 0.00 0.00 75 1011.5
20260506184535 52 77 6.1 8.7 0.00 0.00 0.00 75 1011.4
20260506183024 53 73 6.1 9.6 0.00 0.00 0.00 73 1011.4
20260506181535 52 82 6.1 9.6 0.00 0.00 0.00 71 1011.4
20260506180025 53 57 6.1 9.6 0.00 0.00 0.00 73 1011.4
20260506174519 52 59 5.2 11.3 0.00 0.00 0.00 72 1011.4
20260506173121 52 55 7.8 11.3 0.00 0.00 0.00 71 1011.4
20260506171515 52 60 7.8 13.0 0.00 0.00 0.00 72 1011.4
20260506170024 52 57 9.6 11.3 0.00 0.00 0.00 71 1011.4
20260506164535 52 56 7.8 11.3 0.00 0.00 0.00 73 1011.4
20260506163014 52 64 8.7 11.3 0.00 0.00 0.00 72 1011.7
20260506161512 52 54 9.6 12.2 0.00 0.00 0.00 72 1011.6
20260506160011 52 56 10.4 12.2 0.00 0.00 0.00 70 1011.7
20260506154509 52 56 9.6 12.2 0.00 0.00 0.00 73 1011.7
20260506153008 52 50 9.6 13.0 0.00 0.00 0.00 72 1011.7
20260506151504 51 50 10.4 13.0 0.00 0.00 0.00 71 1011.8
20260506150002 51 55 10.4 12.2 0.00 0.00 0.00 72 1011.8
20260506144607 51 55 10.4 13.0 0.00 0.00 0.00 72 1011.9
20260506143100 51 52 10.4 13.0 0.00 0.00 0.00 72 1012.0
20260506141558 51 46 11.3 13.0 0.00 0.00 0.00 71 1012.2
20260506140056 51 54 11.3 13.9 0.00 0.00 0.00 73 1012.3
20260506134554 50 56 12.2 13.9 0.00 0.00 0.00 72 1012.5
20260506133107 50 52 12.2 13.9 0.00 0.00 0.00 75 1012.5
20260506131608 50 54 12.2 13.9 0.00 0.00 0.00 75 1012.7
20260506130051 49 46 11.3 13.9 0.00 0.00 0.00 75 1012.6
20260506124551 49 66 11.3 13.9 0.00 0.00 0.00 74 1012.8
20260506123050 49 51 12.2 14.8 0.00 0.00 0.00 76 1012.8
20260506121555 49 51 12.2 14.8 0.00 0.00 0.00 74 1012.8
20260506120058 49 60 12.2 14.8 0.00 0.00 0.00 74 1012.9
20260506114546 49 67 12.2 14.8 0.00 0.00 0.00 74 1013.0
20260506113046 49 53 11.3 14.8 0.00 0.00 0.00 75 1013.0
20260506111547 48 53 12.2 15.6 0.00 0.00 0.00 75 1013.3
20260506110054 49 54 11.3 15.6 0.00 0.00 0.00 76 1013.2
20260506104557 48 58 12.2 15.6 0.00 0.00 0.00 76 1013.1
20260506103046 48 61 11.3 15.6 0.00 0.00 0.00 76 1013.1
20260506101541 48 54 11.3 15.6 0.00 0.00 0.00 77 1013.2
20260506100046 48 54 10.4 16.5 0.00 0.00 0.00 74 1013.2
20260506094538 48 59 12.2 16.5 0.00 0.00 0.00 75 1013.3
20260506093036 48 56 10.4 14.8 0.00 0.00 0.00 75 1013.3
20260506091536 48 55 10.4 15.6 0.00 0.00 0.00 76 1013.2
20260506090033 48 48 10.4 14.8 0.00 0.00 0.00 78 1013.4
20260506084608 48 62 8.7 14.8 0.00 0.00 0.00 77 1013.4
20260506083034 49 83 8.7 12.2 0.00 0.00 0.00 77 1013.4
20260506081538 48 111 7.0 12.2 0.00 0.00 0.00 79 1013.4
20260506073025 47 103 8.7 11.3 0.00 0.00 0.00 81 1013.3
20260506071526 47 135 6.1 10.4 0.00 0.00 0.00 82 1013.3
20260506061521 45 131 6.1 7.8 0.00 0.00 0.00 82 1013.0
20260506044521 45 157 7.8 10.4 0.00 0.00 0.00 82 1012.7
20260506043017 45 152 6.1 8.7 0.00 0.00 0.00 82 1012.8
20260506041516 45 129 7.0 9.6 0.00 0.00 0.00 82 1012.8
20260506040014 45 127 7.0 8.7 0.00 0.00 0.00 82 1012.8
20260506034514 45 133 7.8 9.6 0.00 0.01 0.00 82 1012.9
20260506033013 45 135 6.1 8.7 0.00 0.01 0.00 82 1012.9
20260506031513 45 129 7.0 8.7 0.00 0.01 0.00 82 1012.9
20260506030010 46 139 7.0 10.4 0.00 0.01 0.00 82 1012.9
20260506024509 46 128 7.0 8.7 0.00 0.01 0.00 82 1013.0